Погода в Астрадамовке

Россия / Ульяновская область     54°32′47″N   47°08′18″E
темп.,
°C
ветер,
м/с
пор.,
м/с
влажн.,
%
обл.,
%
осадки,
мм/ч
давл.,
гПа
погр.,
м
20 апреля, вт
вт2001:00+5в612635 0.0 1026612
04:00+2в614635 0.0 1027482
07:00+2в714673 0.0 1028644
10:00+5вюв913410 0.0 1028905
13:00+8вюв911397 0.0 10271182
16:00+9вюв9113830 0.0 10251336
19:00+8вюв81242100 0.0 10241120
22:00+6вюв81543100 0.0 1024925
21 апреля, ср
ср2101:00+5юв91744100 0.0 1022827
04:00+5юв101946100 0.0 1020833
07:00+3юв112279100 1.9 1019796
10:00+4юв111968100 2.0 1019860
13:00+4ююв101873100 0.0 1019836
16:00+3ююв101785100 0.4 1019708
19:00+3ююв91791100 0.1 1018661
22:00+3ююв81792100 0.1 1019623
22 апреля, чт
чт2201:00+4ю71492100 0.0 1019520
04:00+4ю51094100 0.1 1020339
07:00+4ю51095100 0.1 1022315
10:00+8ю698456 0.1 1022517
13:00+12ю686226 0.0 10221176
16:00+13юз695794 0.8 10211514
19:00+12юз47657 0.6 1022299
22:00+8зюз117869 0.8 102311
23 апреля, пт
пт2301:00+8юз118166 0.0 102425
04:00+6ю11885 0.0 102410
07:00+6ю22865 0.0 102553
10:00+12ю33595 0.0 1025525
13:00+14ююв224422 0.0 10241780
16:00+15юв224197 0.0 10231941
19:00+12вюв586494 0.0 1023388
22:00+11юв4870100 0.0 1022388
24 апреля, сб
сб2401:00+8вюв3783100 0.0 1021190
04:00+6в2588100 0.0 1020123
07:00+6всв3687100 0.0 1018227
10:00+9в4574100 0.0 1016607
13:00+12вюв336295 0.0 10141230
16:00+11юв4467100 0.1 1013784
19:00+10юв467199 0.0 1012586
22:00+7юв498699 0.0 1011288